Regional Weather Roundup
Issued by NWS Newport/Morehead, NC

Current Version | Previous Version | Text Only | Print | Product List | Glossary On
Versions: 1 2 3 4 5 6 7 8 9 10 11 12 13 14 15 16 17 18 19 20 21 22 23 24 25 26 27 28 29 30 31 32 33 34 35 36 37 38 39 40 41 42 43 44 45 46 47 48 49 50
000
ASUS42 KMHX 071713
RWRMHX
WEATHER ROUNDUP FOR EASTERN NORTH CAROLINA
NATIONAL WEATHER SERVICE NEWPORT/MOREHEAD CITY NC
100 PM EDT TUE JUL 07 2015

NOTE: "FAIR" INDICATES FEW OR NO CLOUDS BELOW 12,000 FEET
WITH NO SIGNIFICANT WEATHER AND/OR OBSTRUCTIONS TO VISIBILITY

NCZ015>017-031-032-045>047-102-103-071800-
NORTH COAST

CITY           SKY/WX    TMP DP  RH WIND       PRES   REMARKS
EDENTON          N/A     87  73  64 SW10      30.11F
ELIZABETH CITY SUNNY     87  75  67 S10       30.11F
KITTY HAWK     SUNNY     92  68  45 S7        30.11F
MANTEO         SUNNY     87  69  54 W7        30.13S

$$

NCZ045>047-081-094-103-104-071800-
CENTRAL COAST

CITY           SKY/WX    TMP DP  RH WIND       PRES   REMARKS
FRISCO         SUNNY     83  74  74 SW12      30.15F
SWANQUARTER      N/A     88 N/A N/A S9        30.09S

$$

NCZ095-097-098-100-101-071800-
SOUTHERN COAST

CITY           SKY/WX    TMP DP  RH WIND       PRES   REMARKS
BEAUFORT       SUNNY     85  75  72 S13       30.16S
CEDAR ISLAND     N/A     90 N/A N/A SW7G13    30.18S
JACKSONVILLE   PTSUNNY   86  69  56 VRB7      30.13F
PINEY ISLAND   CLOUDY   N/A N/A N/A W10       30.13F
WILMINGTON     MOSUNNY   90  71  53 SW10      30.14F


$$

NCZ011>013-027>030-043-044-078>080-089-090>093-098-071800-
COASTAL PLAIN

CITY           SKY/WX    TMP DP  RH WIND       PRES   REMARKS
AHOSKIE        SUNNY     87  74  65 S8        30.10F
CLINTON        MOSUNNY   88  73  60 SW3       30.13F
ELIZABETHTOWN  MOSUNNY   89  69  51 S8        30.14S
GOLDSBORO      MOSUNNY   89  72  56 W7        30.10F
GREENVILLE     MOSUNNY   88  73  62 SW9       30.13F
HAVELOCK       PTSUNNY   87  72  60 S7        30.15S
KENANSVILLE    MOSUNNY   88  68  51 SW7       30.14S
KINSTON        MOSUNNY   90  70  51 SW8       30.12F
NEW BERN       MOSUNNY   89  72  56 SW8       30.14F
RICHLANDS      MOSUNNY   90  70  51 SW7       30.13F
ROCKY MOUNT    MOSUNNY   91  73  55 S10G16    30.11F
WASHINGTON     SUNNY     88  71  58 SW5       30.13S
WHITEVILLE     CLOUDY    81  75  81 W5        30.14S

$$

AMZ130-135-150-152-154-156-158-170-250-252-270-ANZ085-086-088-633-658-670-071800-
MARINE OBSERVATIONS

STATION/POSITION TIME  TEMP    WIND        PRES    WAVE   SWELL
                       AIR SEA DIR/SP/G            HT/PER HT/PER
                 (UTC) (F)     (DEG/KT/KT) (MB)    (FT/S) (FT/S)
CHESAPEAKE LIGHT 1700   80     180/ 13/ 15 1019.5
64 E VA BEACH    1650   78 77  190/ 10/ 12 1019.4    3/ 9   2/ 9
DUCK             1606   83 69  220/ 10/ 12   N/A
2 E DUCK         1611      76                N/A     2/14   2/14
OREGON INLET     1612   81 82  200/ 16/ 18 1020.4
13E OREGON INLT  1700      79                N/A     3/ 8   2/13
HATTERAS CG      1630   82 80  210/ 10/ 13 1020.8
DIAMOND BUOY     1650   81 83  220/ 14/ 16 1020.8    3/ 9   2/ 9
CAPE LOOKOUT     1700   82     210/ 10/ 13 1020.9
BEAUFORT LAB     1630   81 81  210/ 12/ 14 1020.6
30 SE NEW RVR IN NOT AVBL
27 SE WRIGHTSVLE 1600      80  230/  8/ 10   N/A
5 SE WRIGHTSVLE  1608   80 79  200/ 12/ 16 1021.0
225 S CAPE HAT   1650   83 81  210/ 10/ 10 1023.7    4/ 9   3/ 9
41 SE CHARLESTON 1650   81 83  200/  8/ 10 1021.0    3/ 8   3/ 8

$$


USA.gov is the U.S. government's official web portal to all federal, state and local government web resources and services.